TimeMST,TemperatureF,Dew PointF,Humidity,Sea Level PressureIn,VisibilityMPH,Wind Direction,Wind SpeedMPH,Gust SpeedMPH,PrecipitationIn,Events,Conditions,WindDirDegrees,DateUTC
12:55 AM,26.1,19.9,78,30.14,10.0,South,3.5,-,N/A,,Clear,190,2012-12-06 07:55:00
1:55 AM,27.0,19.0,72,30.13,10.0,South,6.9,-,N/A,,Clear,180,2012-12-06 08:55:00
2:55 AM,28.9,19.9,69,30.13,10.0,South,5.8,-,N/A,,Scattered Clouds,170,2012-12-06 09:55:00
3:55 AM,30.0,21.0,69,30.12,10.0,SSW,3.5,-,N/A,,Overcast,200,2012-12-06 10:55:00
4:55 AM,30.0,23.0,75,30.13,10.0,Calm,Calm,-,N/A,,Overcast,0,2012-12-06 11:55:00
5:55 AM,30.0,23.0,75,30.11,10.0,Calm,Calm,-,N/A,,Overcast,0,2012-12-06 12:55:00
6:55 AM,28.9,23.0,78,30.11,10.0,South,3.5,-,N/A,,Overcast,180,2012-12-06 13:55:00
7:55 AM,30.9,24.1,76,30.11,10.0,South,4.6,-,N/A,,Overcast,180,2012-12-06 14:55:00
8:55 AM,30.0,25.0,82,30.11,10.0,SSW,4.6,-,0.00,Snow,Light Snow,210,2012-12-06 15:55:00
9:55 AM,30.9,28.0,89,30.12,2.5,SE,9.2,-,0.00,Snow,Light Snow,130,2012-12-06 16:55:00
10:12 AM,30.2,28.4,93,30.02,6.0,SE,9.2,-,0.00,Snow,Light Snow,140,2012-12-06 17:12:00
10:55 AM,32.0,28.0,85,30.11,10.0,South,5.8,-,0.00,,Overcast,170,2012-12-06 17:55:00
11:12 AM,32.0,28.4,87,30.02,10.0,SSE,9.2,18.4,N/A,,Overcast,160,2012-12-06 18:12:00
11:55 AM,33.1,28.9,85,30.08,10.0,SE,10.4,-,0.00,Snow,Light Snow,140,2012-12-06 18:55:00
12:08 PM,33.8,28.4,81,29.99,9.0,SE,9.2,-,0.00,Snow,Light Snow,140,2012-12-06 19:08:00
12:55 PM,33.1,28.0,82,30.06,9.0,SE,9.2,-,0.00,Snow,Light Snow,140,2012-12-06 19:55:00
1:55 PM,34.0,27.0,75,30.04,10.0,SSE,10.4,-,0.00,,Overcast,160,2012-12-06 20:55:00
2:55 PM,34.0,27.0,75,30.02,10.0,SSE,11.5,-,N/A,,Overcast,150,2012-12-06 21:55:00
3:55 PM,33.1,27.0,78,30.01,10.0,SSE,11.5,-,N/A,,Overcast,150,2012-12-06 22:55:00
4:55 PM,33.1,27.0,78,30.01,10.0,SSE,9.2,-,N/A,,Overcast,160,2012-12-06 23:55:00
5:55 PM,33.8,28.4,81,29.92,9.0,SSE,11.5,-,N/A,Snow,Light Snow,150,2012-12-07 00:55:00
6:29 PM,32.0,28.4,87,29.92,10.0,SSE,10.4,-,0.00,Snow,Light Snow,150,2012-12-07 01:29:00
6:52 PM,30.2,28.4,93,29.92,8.0,SSE,10.4,-,0.00,Snow,Light Snow,150,2012-12-07 01:52:00
6:55 PM,30.9,28.9,92,30.00,8.0,SSE,10.4,-,0.00,Snow,Light Snow,150,2012-12-07 01:55:00
7:55 PM,30.9,28.9,92,29.99,3.0,SSE,12.7,-,0.00,Snow,Light Snow,160,2012-12-07 02:55:00
8:55 PM,30.9,28.9,92,29.98,2.5,SSE,11.5,-,0.00,Snow,Light Snow,160,2012-12-07 03:55:00
9:07 PM,30.2,28.4,93,29.89,2.5,SSE,11.5,-,0.00,Snow,Light Snow,160,2012-12-07 04:07:00
9:14 PM,30.2,28.4,93,29.89,2.5,SSE,12.7,-,0.00,Snow,Light Snow,160,2012-12-07 04:14:00
9:55 PM,30.9,30.0,96,29.96,2.0,SSE,11.5,-,0.01,Snow,Light Snow,160,2012-12-07 04:55:00
10:36 PM,30.2,30.2,100,29.87,9.0,SSE,11.5,-,0.00,Snow,Light Snow,160,2012-12-07 05:36:00
10:55 PM,30.9,30.0,96,29.94,6.0,SSE,9.2,-,0.00,Snow,Light Snow,160,2012-12-07 05:55:00
11:55 PM,32.0,30.0,92,29.93,10.0,South,8.1,-,0.00,,Overcast,170,2012-12-07 06:55:00